Year,Month,Day,Hour,Minute,Value (Times are PST for temperature in C)
2009,07,25,00,00,18.20
2009,07,25,00,01,18.20
2009,07,25,00,02,18.20
2009,07,25,00,03,18.10
2009,07,25,00,04,18.10
2009,07,25,00,05,18.10
2009,07,25,00,06,18.10
2009,07,25,00,07,18.10
2009,07,25,00,08,18.10
2009,07,25,00,09,18.10
2009,07,25,00,10,18.10
2009,07,25,00,11,18.10
2009,07,25,00,12,18.10
2009,07,25,00,13,18.10
2009,07,25,00,14,18.10
2009,07,25,00,15,18.10
2009,07,25,00,16,18.10
2009,07,25,00,17,18.10
2009,07,25,00,18,18.10
2009,07,25,00,19,18.10
2009,07,25,00,20,18.00
2009,07,25,00,21,18.00
2009,07,25,00,22,18.00
2009,07,25,00,23,18.00
2009,07,25,00,24,18.00
2009,07,25,00,25,18.00
2009,07,25,00,26,18.00
2009,07,25,00,27,17.90
2009,07,25,00,28,17.90
2009,07,25,00,29,17.80
2009,07,25,00,30,17.80
2009,07,25,00,31,17.70
2009,07,25,00,32,17.70
2009,07,25,00,33,17.70
2009,07,25,00,34,17.70
2009,07,25,00,35,17.70
2009,07,25,00,36,17.70
2009,07,25,00,37,17.70
2009,07,25,00,38,17.70
2009,07,25,00,39,17.70
2009,07,25,00,40,17.70
2009,07,25,00,41,17.70
2009,07,25,00,42,17.70
2009,07,25,00,43,17.70
2009,07,25,00,44,17.70
2009,07,25,00,45,17.70
2009,07,25,00,46,17.70
2009,07,25,00,47,17.70
2009,07,25,00,48,17.60
2009,07,25,00,49,17.60
2009,07,25,00,50,17.60
2009,07,25,00,51,17.50
2009,07,25,00,52,17.50
2009,07,25,00,53,17.50
2009,07,25,00,54,17.40
2009,07,25,00,55,17.40
2009,07,25,00,56,17.40
2009,07,25,00,57,17.30
2009,07,25,00,58,17.30
2009,07,25,00,59,17.40
2009,07,25,01,00,17.40
2009,07,25,01,01,17.40
2009,07,25,01,02,17.50
2009,07,25,01,03,17.50
2009,07,25,01,04,17.60
2009,07,25,01,05,17.60
2009,07,25,01,06,17.70
2009,07,25,01,07,17.60
2009,07,25,01,08,17.60
2009,07,25,01,09,17.60
2009,07,25,01,10,17.50
2009,07,25,01,11,17.40
2009,07,25,01,12,17.40
2009,07,25,01,13,17.30
2009,07,25,01,14,17.30
2009,07,25,01,15,17.30
2009,07,25,01,16,17.20
2009,07,25,01,17,17.20
2009,07,25,01,18,17.20
2009,07,25,01,19,17.20
2009,07,25,01,20,17.20
2009,07,25,01,21,17.20
2009,07,25,01,22,17.20
2009,07,25,01,23,17.20
2009,07,25,01,24,17.20
2009,07,25,01,25,17.20
2009,07,25,01,26,17.20
2009,07,25,01,27,17.20
2009,07,25,01,28,17.30
2009,07,25,01,29,17.40
2009,07,25,01,30,17.50
2009,07,25,01,31,17.50
2009,07,25,01,32,17.70
2009,07,25,01,33,17.80
2009,07,25,01,34,18.00
2009,07,25,01,35,18.10
2009,07,25,01,36,18.20
2009,07,25,01,37,18.30
2009,07,25,01,38,18.50
2009,07,25,01,39,18.60
2009,07,25,01,40,18.70
2009,07,25,01,41,18.80
2009,07,25,01,42,18.80
2009,07,25,01,43,18.90
2009,07,25,01,44,19.00
2009,07,25,01,45,19.00
2009,07,25,01,46,19.10
2009,07,25,01,47,19.10
2009,07,25,01,48,19.20
2009,07,25,01,49,19.20
2009,07,25,01,50,19.20
2009,07,25,01,51,19.20
2009,07,25,01,52,19.20
2009,07,25,01,53,19.30
2009,07,25,01,54,19.30
2009,07,25,01,55,19.40
2009,07,25,01,56,19.40
2009,07,25,01,57,19.40
2009,07,25,01,58,19.40
2009,07,25,01,59,19.40
2009,07,25,02,00,19.40
2009,07,25,02,01,19.50
2009,07,25,02,02,19.50
2009,07,25,02,03,19.50
2009,07,25,02,04,19.60
2009,07,25,02,05,19.60
2009,07,25,02,06,19.60
2009,07,25,02,07,19.70
2009,07,25,02,08,19.70
2009,07,25,02,09,19.70
2009,07,25,02,10,19.70
2009,07,25,02,11,19.70
2009,07,25,02,12,19.70
2009,07,25,02,13,19.70
2009,07,25,02,14,19.70
2009,07,25,02,15,19.80
2009,07,25,02,16,19.80
2009,07,25,02,17,19.80
2009,07,25,02,18,19.80
2009,07,25,02,19,19.80
2009,07,25,02,20,19.80
2009,07,25,02,21,19.70
2009,07,25,02,22,19.80
2009,07,25,02,23,19.80
2009,07,25,02,24,19.80
2009,07,25,02,25,19.80
2009,07,25,02,26,19.80
2009,07,25,02,27,19.90
2009,07,25,02,28,19.90
2009,07,25,02,29,19.90
2009,07,25,02,30,19.90
2009,07,25,02,31,19.80
2009,07,25,02,32,19.80
2009,07,25,02,33,19.80
2009,07,25,02,34,19.90
2009,07,25,02,35,19.90
2009,07,25,02,36,19.90
2009,07,25,02,37,19.90
2009,07,25,02,38,19.90
2009,07,25,02,39,19.90
2009,07,25,02,40,19.90
2009,07,25,02,41,19.90
2009,07,25,02,42,19.90
2009,07,25,02,43,19.90
2009,07,25,02,44,19.80
2009,07,25,02,45,19.80
2009,07,25,02,46,19.80
2009,07,25,02,47,19.80
2009,07,25,02,48,19.80
2009,07,25,02,49,19.70
2009,07,25,02,50,19.70
2009,07,25,02,51,19.70
2009,07,25,02,52,19.70
2009,07,25,02,53,19.70
2009,07,25,02,54,19.70
2009,07,25,02,55,19.70
2009,07,25,02,56,19.70
2009,07,25,02,57,19.60
2009,07,25,02,58,19.60
2009,07,25,02,59,19.60
2009,07,25,03,00,19.60
2009,07,25,03,01,19.50
2009,07,25,03,02,19.50
2009,07,25,03,03,19.50
2009,07,25,03,04,19.50
2009,07,25,03,05,19.40
2009,07,25,03,06,19.40
2009,07,25,03,07,19.40
2009,07,25,03,08,19.40
2009,07,25,03,09,19.40
2009,07,25,03,10,19.40
2009,07,25,03,11,19.40
2009,07,25,03,12,19.40
2009,07,25,03,13,19.40
2009,07,25,03,14,19.40
2009,07,25,03,15,19.40
2009,07,25,03,16,19.40
2009,07,25,03,17,19.30
2009,07,25,03,18,19.30
2009,07,25,03,19,19.30
2009,07,25,03,20,19.30
2009,07,25,03,21,19.30
2009,07,25,03,22,19.30
2009,07,25,03,23,19.30
2009,07,25,03,24,19.20
2009,07,25,03,25,19.20
2009,07,25,03,26,19.20
2009,07,25,03,27,19.20
2009,07,25,03,28,19.20
2009,07,25,03,29,19.20
2009,07,25,03,30,19.20
2009,07,25,03,31,19.20
2009,07,25,03,32,19.20
2009,07,25,03,33,19.20
2009,07,25,03,34,19.10
2009,07,25,03,35,19.10
2009,07,25,03,36,19.10
2009,07,25,03,37,19.10
2009,07,25,03,38,19.10
2009,07,25,03,39,19.10
2009,07,25,03,40,19.10
2009,07,25,03,41,19.10
2009,07,25,03,42,19.10
2009,07,25,03,43,19.10
2009,07,25,03,44,19.10
2009,07,25,03,45,19.00
2009,07,25,03,46,19.00
2009,07,25,03,47,19.00
2009,07,25,03,48,19.00
2009,07,25,03,49,19.00
2009,07,25,03,50,18.90
2009,07,25,03,51,18.90
2009,07,25,03,52,18.90
2009,07,25,03,53,18.90
2009,07,25,03,54,18.90
2009,07,25,03,55,18.90
2009,07,25,03,56,18.90
2009,07,25,03,57,18.90
2009,07,25,03,58,18.90
2009,07,25,03,59,18.90
2009,07,25,04,00,18.80
2009,07,25,04,01,18.80
2009,07,25,04,02,18.80
2009,07,25,04,03,18.80
2009,07,25,04,04,18.80
2009,07,25,04,05,18.80
2009,07,25,04,06,18.80
2009,07,25,04,07,18.80
2009,07,25,04,08,18.80
2009,07,25,04,09,18.80
2009,07,25,04,10,18.70
2009,07,25,04,11,18.70
2009,07,25,04,12,18.70
2009,07,25,04,13,18.80
2009,07,25,04,14,18.80
2009,07,25,04,15,18.80
2009,07,25,04,16,18.80
2009,07,25,04,17,18.70
2009,07,25,04,18,18.70
2009,07,25,04,19,18.70
2009,07,25,04,20,18.70
2009,07,25,04,21,18.70
2009,07,25,04,22,18.60
2009,07,25,04,23,18.60
2009,07,25,04,24,18.60
2009,07,25,04,25,18.60
2009,07,25,04,26,18.60
2009,07,25,04,27,18.60
2009,07,25,04,28,18.60
2009,07,25,04,29,18.60
2009,07,25,04,30,18.60
2009,07,25,04,31,18.50
2009,07,25,04,32,18.50
2009,07,25,04,33,18.50
2009,07,25,04,34,18.50
2009,07,25,04,35,18.40
2009,07,25,04,36,18.40
2009,07,25,04,37,18.40
2009,07,25,04,38,18.40
2009,07,25,04,39,18.40
2009,07,25,04,40,18.40
2009,07,25,04,41,18.40
2009,07,25,04,42,18.40
2009,07,25,04,43,18.40
2009,07,25,04,44,18.40
2009,07,25,04,45,18.30
2009,07,25,04,46,18.30
2009,07,25,04,47,18.30
2009,07,25,04,48,18.30
2009,07,25,04,49,18.30
2009,07,25,04,50,18.30
2009,07,25,04,51,18.20
2009,07,25,04,52,18.20
2009,07,25,04,53,18.20
2009,07,25,04,54,18.20
2009,07,25,04,55,18.10
2009,07,25,04,56,18.10
2009,07,25,04,57,18.10
2009,07,25,04,58,18.10
2009,07,25,04,59,18.10
2009,07,25,05,00,18.10
2009,07,25,05,01,18.10
2009,07,25,05,02,18.10
2009,07,25,05,03,18.10
2009,07,25,05,04,18.10
2009,07,25,05,05,18.10
2009,07,25,05,06,18.10
2009,07,25,05,07,18.10
2009,07,25,05,08,18.10
2009,07,25,05,09,18.10
2009,07,25,05,10,18.00
2009,07,25,05,11,18.00
2009,07,25,05,12,18.00
2009,07,25,05,13,18.00
2009,07,25,05,14,18.00
2009,07,25,05,15,18.00
2009,07,25,05,16,18.00
2009,07,25,05,17,18.00
2009,07,25,05,18,18.00
2009,07,25,05,19,18.10
2009,07,25,05,20,18.10
2009,07,25,05,21,18.10
2009,07,25,05,22,18.10
2009,07,25,05,23,18.20
2009,07,25,05,24,18.20
2009,07,25,05,25,18.20
2009,07,25,05,26,18.20
2009,07,25,05,27,18.20
2009,07,25,05,28,18.20
2009,07,25,05,29,18.20
2009,07,25,05,30,18.30
2009,07,25,05,31,18.30
2009,07,25,05,32,18.30
2009,07,25,05,33,18.30
2009,07,25,05,34,18.30
2009,07,25,05,35,18.30
2009,07,25,05,36,18.30
2009,07,25,05,37,18.40
2009,07,25,05,38,18.40
2009,07,25,05,39,18.40
2009,07,25,05,40,18.40
2009,07,25,05,41,18.40
2009,07,25,05,42,18.40
2009,07,25,05,43,18.50
2009,07,25,05,44,18.50
2009,07,25,05,45,18.40
2009,07,25,05,46,18.40
2009,07,25,05,47,18.40
2009,07,25,05,48,18.30
2009,07,25,05,49,18.30
2009,07,25,05,50,18.30
2009,07,25,05,51,18.30
2009,07,25,05,52,18.30
2009,07,25,05,53,18.30
2009,07,25,05,54,18.30
2009,07,25,05,55,18.30
2009,07,25,05,56,18.30
2009,07,25,05,57,18.30
2009,07,25,05,58,18.30
2009,07,25,05,59,18.30
2009,07,25,06,00,18.30
2009,07,25,06,01,18.30
2009,07,25,06,02,18.30
2009,07,25,06,03,18.30
2009,07,25,06,04,18.30
2009,07,25,06,05,18.30
2009,07,25,06,06,18.30
2009,07,25,06,07,18.30
2009,07,25,06,08,18.30
2009,07,25,06,09,18.40
2009,07,25,06,10,18.40
2009,07,25,06,11,18.40
2009,07,25,06,12,18.40
2009,07,25,06,13,18.40
2009,07,25,06,14,18.40
2009,07,25,06,15,18.40
2009,07,25,06,16,18.40
2009,07,25,06,17,18.40
2009,07,25,06,18,18.50
2009,07,25,06,19,18.50
2009,07,25,06,20,18.50
2009,07,25,06,21,18.50
2009,07,25,06,22,18.50
2009,07,25,06,23,18.50
2009,07,25,06,24,18.50
2009,07,25,06,25,18.50
2009,07,25,06,26,18.40
2009,07,25,06,27,18.40
2009,07,25,06,28,18.40
2009,07,25,06,29,18.40
2009,07,25,06,30,18.40
2009,07,25,06,31,18.40
2009,07,25,06,32,18.40
2009,07,25,06,33,18.30
2009,07,25,06,34,18.30
2009,07,25,06,35,18.30
2009,07,25,06,36,18.30
2009,07,25,06,37,18.30
2009,07,25,06,38,18.40
2009,07,25,06,39,18.40
2009,07,25,06,40,18.40
2009,07,25,06,41,18.40
2009,07,25,06,42,18.40
2009,07,25,06,43,18.50
2009,07,25,06,44,18.50
2009,07,25,06,45,18.50
2009,07,25,06,46,18.50
2009,07,25,06,47,18.50
2009,07,25,06,48,18.50
2009,07,25,06,49,18.50
2009,07,25,06,50,18.60
2009,07,25,06,51,18.60
2009,07,25,06,52,18.60
2009,07,25,06,53,18.60
2009,07,25,06,54,18.60
2009,07,25,06,55,18.60
2009,07,25,06,56,18.60
2009,07,25,06,57,18.60
2009,07,25,06,58,18.60
2009,07,25,06,59,18.60
2009,07,25,07,00,18.60
2009,07,25,07,01,18.60
2009,07,25,07,02,18.60
2009,07,25,07,03,18.50
2009,07,25,07,04,18.50
2009,07,25,07,05,18.50
2009,07,25,07,06,18.50
2009,07,25,07,07,18.50
2009,07,25,07,08,18.50
2009,07,25,07,09,18.50
2009,07,25,07,10,18.50
2009,07,25,07,11,18.50
2009,07,25,07,12,18.60
2009,07,25,07,13,18.60
2009,07,25,07,14,18.60
2009,07,25,07,15,18.60
2009,07,25,07,16,18.60
2009,07,25,07,17,18.60
2009,07,25,07,18,18.70
2009,07,25,07,19,18.70
2009,07,25,07,20,18.70
2009,07,25,07,21,18.70
2009,07,25,07,22,18.70
2009,07,25,07,23,18.70
2009,07,25,07,24,18.70
2009,07,25,07,25,18.70
2009,07,25,07,26,18.70
2009,07,25,07,27,18.70
2009,07,25,07,28,18.80
2009,07,25,07,29,18.80
2009,07,25,07,30,18.80
2009,07,25,07,31,18.80
2009,07,25,07,32,18.80
2009,07,25,07,33,18.80
2009,07,25,07,34,18.70
2009,07,25,07,35,18.80
2009,07,25,07,36,18.80
2009,07,25,07,37,18.80
2009,07,25,07,38,18.80
2009,07,25,07,39,18.80
2009,07,25,07,40,18.90
2009,07,25,07,41,18.90
2009,07,25,07,42,18.90
2009,07,25,07,43,18.90
2009,07,25,07,44,18.90
2009,07,25,07,45,18.90
2009,07,25,07,46,18.90
2009,07,25,07,47,18.90
2009,07,25,07,48,18.80
2009,07,25,07,49,18.80
2009,07,25,07,50,18.80
2009,07,25,07,51,18.80
2009,07,25,07,52,18.80
2009,07,25,07,53,18.90
2009,07,25,07,54,18.90
2009,07,25,07,55,18.90
2009,07,25,07,56,18.90
2009,07,25,07,57,18.90
2009,07,25,07,58,18.90
2009,07,25,07,59,18.90
2009,07,25,08,00,18.90
2009,07,25,08,01,19.00
2009,07,25,08,02,19.00
2009,07,25,08,03,19.00
2009,07,25,08,04,19.10
2009,07,25,08,05,19.10
2009,07,25,08,06,19.10
2009,07,25,08,07,19.10
2009,07,25,08,08,19.20
2009,07,25,08,09,19.20
2009,07,25,08,10,19.20
2009,07,25,08,11,19.20
2009,07,25,08,12,19.30
2009,07,25,08,13,19.30
2009,07,25,08,14,19.30
2009,07,25,08,15,19.30
2009,07,25,08,16,19.30
2009,07,25,08,17,19.30
2009,07,25,08,18,19.30
2009,07,25,08,19,19.30
2009,07,25,08,20,19.30
2009,07,25,08,21,19.30
2009,07,25,08,22,19.30
2009,07,25,08,23,19.30
2009,07,25,08,24,19.30
2009,07,25,08,25,19.30
2009,07,25,08,26,19.30
2009,07,25,08,27,19.40
2009,07,25,08,28,19.40
2009,07,25,08,29,19.40
2009,07,25,08,30,19.40
2009,07,25,08,31,19.40
2009,07,25,08,32,19.40
2009,07,25,08,33,19.40
2009,07,25,08,34,19.50
2009,07,25,08,35,19.50
2009,07,25,08,36,19.60
2009,07,25,08,37,19.60
2009,07,25,08,38,19.70
2009,07,25,08,39,19.80
2009,07,25,08,40,19.80
2009,07,25,08,41,19.80
2009,07,25,08,42,19.80
2009,07,25,08,43,19.90
2009,07,25,08,44,19.90
2009,07,25,08,45,19.90
2009,07,25,08,46,19.90
2009,07,25,08,47,20.00
2009,07,25,08,48,20.10
2009,07,25,08,49,20.10
2009,07,25,08,50,20.20
2009,07,25,08,51,20.20
2009,07,25,08,52,20.20
2009,07,25,08,53,20.20
2009,07,25,08,54,20.10
2009,07,25,08,55,20.10
2009,07,25,08,56,20.10
2009,07,25,08,57,20.10
2009,07,25,08,58,20.10
2009,07,25,08,59,20.10
2009,07,25,09,00,20.20
2009,07,25,09,01,20.20
2009,07,25,09,02,20.20
2009,07,25,09,03,20.30
2009,07,25,09,04,20.20
2009,07,25,09,05,20.20
2009,07,25,09,06,20.20
2009,07,25,09,07,20.20
2009,07,25,09,08,20.20
2009,07,25,09,09,20.20
2009,07,25,09,10,20.20
2009,07,25,09,11,20.20
2009,07,25,09,12,20.20
2009,07,25,09,13,20.20
2009,07,25,09,14,20.20
2009,07,25,09,15,20.20
2009,07,25,09,16,20.30
2009,07,25,09,17,20.40
2009,07,25,09,18,20.50
2009,07,25,09,19,20.60
2009,07,25,09,20,20.60
2009,07,25,09,21,20.70
2009,07,25,09,22,20.70
2009,07,25,09,23,20.80
2009,07,25,09,24,20.80
2009,07,25,09,25,20.80
2009,07,25,09,26,20.80
2009,07,25,09,27,20.80
2009,07,25,09,28,20.80
2009,07,25,09,29,20.70
2009,07,25,09,30,20.70
2009,07,25,09,31,20.70
2009,07,25,09,32,20.70
2009,07,25,09,33,20.60
2009,07,25,09,34,20.60
2009,07,25,09,35,20.40
2009,07,25,09,36,20.40
2009,07,25,09,37,20.40
2009,07,25,09,38,20.40
2009,07,25,09,39,20.40
2009,07,25,09,40,20.40
2009,07,25,09,41,20.50
2009,07,25,09,42,20.60
2009,07,25,09,43,20.70
2009,07,25,09,44,20.70
2009,07,25,09,45,20.80
2009,07,25,09,46,20.80
2009,07,25,09,47,20.80
2009,07,25,09,48,20.70
2009,07,25,09,49,20.70
2009,07,25,09,50,20.70
2009,07,25,09,51,20.70
2009,07,25,09,52,20.60
2009,07,25,09,53,20.70
2009,07,25,09,54,20.70
2009,07,25,09,55,20.80
2009,07,25,09,56,20.90
2009,07,25,09,57,20.90
2009,07,25,09,58,21.00
2009,07,25,09,59,21.00
2009,07,25,10,00,21.10
2009,07,25,10,01,21.00
2009,07,25,10,02,21.00
2009,07,25,10,03,21.10
2009,07,25,10,04,21.10
2009,07,25,10,05,21.10
2009,07,25,10,06,21.10
2009,07,25,10,07,21.10
2009,07,25,10,08,21.10
2009,07,25,10,09,21.10
2009,07,25,10,10,21.00
2009,07,25,10,11,21.00
2009,07,25,10,12,21.00
2009,07,25,10,13,21.00
2009,07,25,10,14,21.00
2009,07,25,10,15,21.10
2009,07,25,10,16,21.10
2009,07,25,10,17,21.10
2009,07,25,10,18,21.20
2009,07,25,10,19,21.20
2009,07,25,10,20,21.10
2009,07,25,10,21,21.10
2009,07,25,10,22,21.10
2009,07,25,10,23,21.10
2009,07,25,10,24,21.10
2009,07,25,10,25,21.10
2009,07,25,10,26,21.10
2009,07,25,10,27,21.10
2009,07,25,10,28,21.00
2009,07,25,10,29,21.00
2009,07,25,10,30,20.90
2009,07,25,10,31,20.80
2009,07,25,10,32,20.70
2009,07,25,10,33,20.70
2009,07,25,10,34,20.70
2009,07,25,10,35,20.80
2009,07,25,10,36,20.80
2009,07,25,10,37,20.80
2009,07,25,10,38,20.90
2009,07,25,10,39,20.90
2009,07,25,10,40,20.90
2009,07,25,10,41,20.90
2009,07,25,10,42,20.80
2009,07,25,10,43,20.80
2009,07,25,10,44,20.70
2009,07,25,10,45,20.70
2009,07,25,10,46,20.60
2009,07,25,10,47,20.60
2009,07,25,10,48,20.60
2009,07,25,10,49,20.70
2009,07,25,10,50,20.70
2009,07,25,10,51,20.70
2009,07,25,10,52,20.70
2009,07,25,10,53,20.70
2009,07,25,10,54,20.70
2009,07,25,10,55,20.70
2009,07,25,10,56,20.70
2009,07,25,10,57,20.70
2009,07,25,10,58,20.80
2009,07,25,10,59,20.80
2009,07,25,11,00,20.80
2009,07,25,11,01,20.90
2009,07,25,11,02,20.90
2009,07,25,11,03,21.00
2009,07,25,11,04,21.00
2009,07,25,11,05,21.10
2009,07,25,11,06,21.20
2009,07,25,11,07,21.20
2009,07,25,11,08,21.20
2009,07,25,11,09,21.20
2009,07,25,11,10,21.20
2009,07,25,11,11,21.20
2009,07,25,11,12,21.20
2009,07,25,11,13,21.20
2009,07,25,11,14,21.20
2009,07,25,11,15,21.20
2009,07,25,11,16,21.30
2009,07,25,11,17,21.30
2009,07,25,11,18,21.30
2009,07,25,11,19,21.30
2009,07,25,11,20,21.30
2009,07,25,11,21,21.30
2009,07,25,11,22,21.20
2009,07,25,11,23,21.20
2009,07,25,11,24,21.10
2009,07,25,11,25,21.00
2009,07,25,11,26,20.90
2009,07,25,11,27,20.80
2009,07,25,11,28,20.70
2009,07,25,11,29,20.80
2009,07,25,11,30,20.80
2009,07,25,11,31,20.90
2009,07,25,11,32,20.90
2009,07,25,11,33,20.90
2009,07,25,11,34,21.00
2009,07,25,11,35,21.00
2009,07,25,11,36,21.00
2009,07,25,11,37,21.00
2009,07,25,11,38,21.00
2009,07,25,11,39,20.90
2009,07,25,11,40,21.00
2009,07,25,11,41,21.00
2009,07,25,11,42,21.10
2009,07,25,11,43,21.10
2009,07,25,11,44,21.10
2009,07,25,11,45,21.20
2009,07,25,11,46,21.20
2009,07,25,11,47,21.20
2009,07,25,11,48,21.30
2009,07,25,11,49,21.30
2009,07,25,11,50,21.40
2009,07,25,11,51,21.40
2009,07,25,11,52,21.50
2009,07,25,11,53,21.50
2009,07,25,11,54,21.50
2009,07,25,11,55,21.50
2009,07,25,11,56,21.60
2009,07,25,11,57,21.60
2009,07,25,11,58,21.60
2009,07,25,11,59,21.60
2009,07,25,12,00,21.60
2009,07,25,12,01,21.60
2009,07,25,12,02,21.60
2009,07,25,12,03,21.50
2009,07,25,12,04,21.40
2009,07,25,12,05,21.30
2009,07,25,12,06,21.30
2009,07,25,12,07,21.20
2009,07,25,12,08,21.30
2009,07,25,12,09,21.30
2009,07,25,12,10,21.30
2009,07,25,12,11,21.30
2009,07,25,12,12,21.30
2009,07,25,12,13,21.30
2009,07,25,12,14,21.30
2009,07,25,12,15,21.30
2009,07,25,12,16,21.20
2009,07,25,12,17,21.20
2009,07,25,12,18,21.20
2009,07,25,12,19,21.10
2009,07,25,12,20,21.10
2009,07,25,12,21,21.00
2009,07,25,12,22,21.00
2009,07,25,12,23,21.10
2009,07,25,12,24,21.10
2009,07,25,12,25,21.10
2009,07,25,12,26,21.10
2009,07,25,12,27,21.10
2009,07,25,12,28,21.20
2009,07,25,12,29,21.20
2009,07,25,12,30,21.30
2009,07,25,12,31,21.30
2009,07,25,12,32,21.20
2009,07,25,12,33,21.10
2009,07,25,12,34,21.10
2009,07,25,12,35,21.10
2009,07,25,12,36,21.20
2009,07,25,12,37,21.10
2009,07,25,12,38,21.10
2009,07,25,12,39,21.00
2009,07,25,12,40,20.90
2009,07,25,12,41,20.90
2009,07,25,12,42,20.90
2009,07,25,12,43,20.90
2009,07,25,12,44,21.00
2009,07,25,12,45,21.00
2009,07,25,12,46,21.00
2009,07,25,12,47,20.90
2009,07,25,12,48,20.90
2009,07,25,12,49,20.90
2009,07,25,12,50,20.90
2009,07,25,12,51,20.90
2009,07,25,12,52,20.90
2009,07,25,12,53,21.00
2009,07,25,12,54,21.10
2009,07,25,12,55,21.10
2009,07,25,12,56,21.10
2009,07,25,12,57,21.10
2009,07,25,12,58,21.10
2009,07,25,12,59,21.10
2009,07,25,13,00,21.20
2009,07,25,13,01,21.20
2009,07,25,13,02,21.20
2009,07,25,13,03,21.20
2009,07,25,13,04,21.20
2009,07,25,13,05,21.30
2009,07,25,13,06,21.30
2009,07,25,13,07,21.40
2009,07,25,13,08,21.50
2009,07,25,13,09,21.50
2009,07,25,13,10,21.60
2009,07,25,13,11,21.60
2009,07,25,13,12,21.60
2009,07,25,13,13,21.70
2009,07,25,13,14,21.70
2009,07,25,13,15,21.70
2009,07,25,13,16,21.80
2009,07,25,13,17,21.80
2009,07,25,13,18,21.80
2009,07,25,13,19,21.90
2009,07,25,13,20,22.10
2009,07,25,13,21,22.30
2009,07,25,13,22,22.40
2009,07,25,13,23,22.50
2009,07,25,13,24,22.60
2009,07,25,13,25,22.80
2009,07,25,13,26,22.80
2009,07,25,13,27,22.90
2009,07,25,13,28,23.00
2009,07,25,13,29,23.00
2009,07,25,13,30,23.00
2009,07,25,13,31,22.90
2009,07,25,13,32,22.80
2009,07,25,13,33,22.80
2009,07,25,13,34,22.70
2009,07,25,13,35,22.80
2009,07,25,13,36,22.90
2009,07,25,13,37,23.00
2009,07,25,13,38,23.10
2009,07,25,13,39,23.10
2009,07,25,13,40,23.20
2009,07,25,13,41,23.30
2009,07,25,13,42,23.40
2009,07,25,13,43,23.50
2009,07,25,13,44,23.50
2009,07,25,13,45,23.60
2009,07,25,13,46,23.60
2009,07,25,13,47,23.60
2009,07,25,13,48,23.60
2009,07,25,13,49,23.60
2009,07,25,13,50,23.70
2009,07,25,13,51,23.70
2009,07,25,13,52,23.70
2009,07,25,13,53,23.80
2009,07,25,13,54,23.90
2009,07,25,13,55,24.00
2009,07,25,13,56,24.10
2009,07,25,13,57,24.20
2009,07,25,13,58,24.20
2009,07,25,13,59,24.20
2009,07,25,14,00,24.20
2009,07,25,14,01,24.10
2009,07,25,14,02,24.00
2009,07,25,14,03,24.00
2009,07,25,14,04,24.10
2009,07,25,14,05,24.00
2009,07,25,14,06,24.00
2009,07,25,14,07,24.00
2009,07,25,14,08,24.00
2009,07,25,14,09,24.00
2009,07,25,14,10,24.00
2009,07,25,14,11,23.90
2009,07,25,14,12,23.90
2009,07,25,14,13,23.80
2009,07,25,14,14,23.80
2009,07,25,14,15,23.80
2009,07,25,14,16,23.80
2009,07,25,14,17,23.80
2009,07,25,14,18,23.90
2009,07,25,14,19,23.90
2009,07,25,14,20,23.90
2009,07,25,14,21,23.90
2009,07,25,14,22,24.00
2009,07,25,14,23,24.00
2009,07,25,14,24,24.10
2009,07,25,14,25,24.10
2009,07,25,14,26,24.10
2009,07,25,14,27,24.10
2009,07,25,14,28,24.10
2009,07,25,14,29,24.10
2009,07,25,14,30,24.20
2009,07,25,14,31,24.20
2009,07,25,14,32,24.30
2009,07,25,14,33,24.30
2009,07,25,14,34,24.30
2009,07,25,14,35,24.30
2009,07,25,14,36,24.30
2009,07,25,14,37,24.40
2009,07,25,14,38,24.40
2009,07,25,14,39,24.50
2009,07,25,14,40,24.60
2009,07,25,14,41,24.70
2009,07,25,14,42,24.70
2009,07,25,14,43,24.80
2009,07,25,14,44,24.80
2009,07,25,14,45,24.90
2009,07,25,14,46,25.00
2009,07,25,14,47,25.00
2009,07,25,14,48,24.90
2009,07,25,14,49,24.80
2009,07,25,14,50,24.80
2009,07,25,14,51,24.80
2009,07,25,14,52,24.90
2009,07,25,14,53,25.00
2009,07,25,14,54,25.10
2009,07,25,14,55,25.10
2009,07,25,14,56,25.10
2009,07,25,14,57,25.10
2009,07,25,14,58,25.10
2009,07,25,14,59,25.10
2009,07,25,15,00,25.10
2009,07,25,15,01,25.10
2009,07,25,15,02,25.10
2009,07,25,15,03,25.10
2009,07,25,15,04,25.10
2009,07,25,15,05,25.20
2009,07,25,15,06,25.30
2009,07,25,15,07,25.30
2009,07,25,15,08,25.30
2009,07,25,15,09,25.30
2009,07,25,15,10,25.30
2009,07,25,15,11,25.30
2009,07,25,15,12,25.30
2009,07,25,15,13,25.30
2009,07,25,15,14,25.30
2009,07,25,15,15,25.30
2009,07,25,15,16,25.30
2009,07,25,15,17,25.20
2009,07,25,15,18,25.20
2009,07,25,15,19,25.20
2009,07,25,15,20,25.30
2009,07,25,15,21,25.40
2009,07,25,15,22,25.30
2009,07,25,15,23,25.30
2009,07,25,15,24,25.30
2009,07,25,15,25,25.30
2009,07,25,15,26,25.30
2009,07,25,15,27,25.30
2009,07,25,15,28,25.30
2009,07,25,15,29,25.40
2009,07,25,15,30,25.40
2009,07,25,15,31,25.30
2009,07,25,15,32,25.30
2009,07,25,15,33,25.40
2009,07,25,15,34,25.40
2009,07,25,15,35,25.40
2009,07,25,15,36,25.40
2009,07,25,15,37,25.30
2009,07,25,15,38,25.20
2009,07,25,15,39,25.20
2009,07,25,15,40,25.20
2009,07,25,15,41,25.10
2009,07,25,15,42,25.10
2009,07,25,15,43,25.10
2009,07,25,15,44,25.10
2009,07,25,15,45,25.00
2009,07,25,15,46,25.00
2009,07,25,15,47,25.00
2009,07,25,15,48,25.10
2009,07,25,15,49,25.10
2009,07,25,15,50,25.10
2009,07,25,15,51,25.10
2009,07,25,15,52,25.10
2009,07,25,15,53,25.20
2009,07,25,15,54,25.30
2009,07,25,15,55,25.40
2009,07,25,15,56,25.60
2009,07,25,15,57,25.80
2009,07,25,15,58,25.70
2009,07,25,15,59,25.60
2009,07,25,16,00,25.40
2009,07,25,16,01,25.30
2009,07,25,16,02,25.10
2009,07,25,16,03,25.10
2009,07,25,16,04,25.00
2009,07,25,16,05,24.90
2009,07,25,16,06,24.90
2009,07,25,16,07,25.00
2009,07,25,16,08,25.00
2009,07,25,16,09,25.10
2009,07,25,16,10,25.20
2009,07,25,16,11,25.30
2009,07,25,16,12,25.30
2009,07,25,16,13,25.30
2009,07,25,16,14,25.40
2009,07,25,16,15,25.50
2009,07,25,16,16,25.60
2009,07,25,16,17,25.70
2009,07,25,16,18,25.80
2009,07,25,16,19,25.80
2009,07,25,16,20,25.80
2009,07,25,16,21,25.80
2009,07,25,16,22,25.80
2009,07,25,16,23,25.90
2009,07,25,16,24,25.90
2009,07,25,16,25,25.90
2009,07,25,16,26,25.90
2009,07,25,16,27,25.90
2009,07,25,16,28,25.90
2009,07,25,16,29,25.90
2009,07,25,16,30,25.90
2009,07,25,16,31,25.90
2009,07,25,16,32,26.00
2009,07,25,16,33,26.10
2009,07,25,16,34,26.20
2009,07,25,16,35,26.30
2009,07,25,16,36,26.30
2009,07,25,16,37,26.30
2009,07,25,16,38,26.20
2009,07,25,16,39,26.20
2009,07,25,16,40,26.20
2009,07,25,16,41,26.20
2009,07,25,16,42,26.20
2009,07,25,16,43,26.20
2009,07,25,16,44,26.10
2009,07,25,16,45,26.10
2009,07,25,16,46,26.00
2009,07,25,16,47,25.90
2009,07,25,16,48,25.90
2009,07,25,16,49,25.90
2009,07,25,16,50,26.00
2009,07,25,16,51,26.10
2009,07,25,16,52,26.20
2009,07,25,16,53,26.20
2009,07,25,16,54,26.20
2009,07,25,16,55,26.20
2009,07,25,16,56,26.20
2009,07,25,16,57,26.10
2009,07,25,16,58,26.10
2009,07,25,16,59,26.10
2009,07,25,17,00,26.10
2009,07,25,17,01,26.20
2009,07,25,17,02,26.30
2009,07,25,17,03,26.30
2009,07,25,17,04,26.40
2009,07,25,17,05,26.40
2009,07,25,17,06,26.40
2009,07,25,17,07,26.30
2009,07,25,17,08,26.30
2009,07,25,17,09,26.30
2009,07,25,17,10,26.30
2009,07,25,17,11,26.30
2009,07,25,17,12,26.30
2009,07,25,17,13,26.40
2009,07,25,17,14,26.40
2009,07,25,17,15,26.50
2009,07,25,17,16,26.50
2009,07,25,17,17,26.60
2009,07,25,17,18,26.60
2009,07,25,17,19,26.60